EST,Max TemperatureF,Mean TemperatureF,Min TemperatureF,Max Dew PointF,MeanDew PointF,Min DewpointF,Max Humidity, Mean Humidity, Min Humidity, Max Sea Level PressureIn, Mean Sea Level PressureIn, Min Sea Level PressureIn, Max VisibilityMiles, Mean VisibilityMiles, Min VisibilityMiles, Max Wind SpeedMPH, Mean Wind SpeedMPH, Max Gust SpeedMPH,PrecipitationIn, CloudCover, Events, WindDirDegrees
2011-12-1,43,32,21,32,26,21,100,90,58,30.39,30.31,30.21,10,6,1,9,2,,0.00,0,,189
2011-12-2,43,34,26,34,29,26,100,91,71,30.54,30.45,30.31,9,6,2,8,6,,0.00,1,,108
2011-12-3,54,41,28,38,33,28,100,77,52,30.51,30.41,30.26,10,8,3,12,7,,0.00,1,,144
2011-12-4,52,46,41,48,39,28,100,77,46,30.26,30.21,30.17,10,6,2,14,8,22,0.28,7,Rain,192
2011-12-5,48,41,34,49,44,34,100,100,97,30.19,30.11,30.02,7,2,1,18,7,24,2.36,8,Rain,51
2011-12-6,35,34,32,36,34,32,100,99,93,30.17,30.11,30.06,10,4,1,15,11,22,0.00,8,Rain,4
2011-12-7,32,29,26,32,28,23,100,93,69,30.15,30.03,29.99,9,5,1,16,10,22,0.00,7,Snow,325
2011-12-8,36,28,21,25,23,20,96,80,62,30.32,30.26,30.16,9,7,4,10,6,,0.00,1,,218
2011-12-9,36,30,24,32,28,19,100,87,68,30.43,30.28,30.22,9,6,1,12,6,,0.00,5,Snow,251
2011-12-10,28,22,15,17,12,7,89,69,41,30.58,30.53,30.43,10,8,2,10,6,,0.00,0,,257
2011-12-11,34,24,14,18,14,11,88,71,42,30.64,30.57,30.51,10,8,5,7,4,,0.00,0,,157
2011-12-12,43,30,16,26,20,13,96,75,42,30.53,30.48,30.45,9,8,6,6,3,,0.00,0,,123
2011-12-13,41,32,24,36,31,23,100,84,63,30.51,30.44,30.35,8,7,5,6,2,,0.00,7,Rain,169
2011-12-14,54,46,39,52,44,37,100,97,84,30.36,30.23,29.99,10,4,1,16,6,,0.25,7,Rain,164
2011-12-15,59,46,32,57,50,26,100,93,76,30.21,29.91,29.81,9,5,1,26,18,36,0.57,8,Rain,227
2011-12-16,35,32,28,27,26,22,92,79,70,30.40,30.30,30.22,9,8,6,16,9,,0.00,5,,290
2011-12-17,32,30,28,28,24,20,92,77,69,30.35,30.28,30.21,9,7,2,12,7,,0.00,7,Snow,266
2011-12-18,41,36,30,31,28,26,89,77,56,30.32,30.25,30.15,9,7,4,14,8,,0.00,4,,228
2011-12-19,46,41,36,43,35,30,100,76,58,30.15,30.10,30.06,9,8,2,18,12,25,0.03,7,Rain,223
2011-12-20,45,40,36,45,41,36,100,100,100,30.16,30.05,29.89,5,2,0,12,7,,0.13,8,Fog-Rain,129
2011-12-21,59,52,44,57,50,41,100,96,77,30.00,29.78,29.69,10,5,1,26,10,36,0.72,8,Rain,197
2011-12-22,44,40,34,43,39,35,100,95,79,30.13,30.05,29.99,9,5,2,10,6,,0.33,7,Rain,339
2011-12-23,37,34,30,37,33,27,100,97,76,30.35,30.24,30.08,9,5,2,13,7,,0.01,8,Rain,320
2011-12-24,37,30,24,29,26,23,100,83,62,30.47,30.38,30.33,9,8,6,12,7,,0.00,1,,222
2011-12-25,46,36,26,31,28,24,92,77,50,30.32,30.23,30.08,10,8,6,23,11,30,0.00,2,,243
2011-12-26,43,37,31,30,29,27,92,76,56,30.40,30.26,30.02,10,9,7,13,6,,0.00,2,,199
2011-12-27,37,34,32,38,34,30,100,98,85,29.96,29.62,29.42,10,4,1,21,9,31,0.61,8,Rain-Snow,222
2011-12-28,32,29,26,29,23,19,92,78,64,30.09,30.02,29.84,10,9,7,21,14,30,0.00,5,,282
2011-12-29,46,38,29,34,31,25,89,76,58,30.01,29.84,29.70,10,9,7,17,10,31,0.00,2,,201
2011-12-30,48,44,39,47,42,33,100,88,73,29.85,29.70,29.57,10,7,2,25,12,34,0.21,6,Rain,203
2011-12-31,41,38,34,40,37,34,100,95,87,30.10,29.98,29.74,10,7,4,16,12,25,0.03,7,Rain,242